When you browse on this site, cookies collect data to enhance your experience and personalize the content and advertising you see.
Visit our Privacy Policy to learn more. By continuing to use the site, you agree to this use of cookies and data.
  • In Latvia
  • List of Countries
  • For 7 days
  • Water Temperature
  • Weather Map
  • Weather Widgets
  • user-avatar
    Login

    Hourly Weather Barra

    Today, 14 October, Monday

    Time Temperature Precipitation Wind Pressure Humidity
    00:00 +21°C° 0 mm 1 mps 750 mmHg 90%
    01:00 +21°C° 0 mm 1 mps 750 mmHg 91%
    02:00 +20°C° 0 mm 1 mps 750 mmHg 92%
    03:00 +20°C° 0 mm 1 mps 750 mmHg 92%
    04:00 +20°C° 0 mm 1 mps 750 mmHg 94%
    05:00 +21°C° 0 mm 1 mps 750 mmHg 91%
    06:00 +22°C° 0 mm 1 mps 751 mmHg 88%
    07:00 +23°C° 0 mm 1 mps 751 mmHg 85%
    08:00 +25°C° 0 mm 1 mps 751 mmHg 74%
    09:00 +27°C° 0 mm 1 mps 751 mmHg 63%
    10:00 +30°C° 0 mm 1 mps 751 mmHg 51%
    11:00 +30°C° 0 mm 2 mps 751 mmHg 50%
    12:00 +30°C° 0 mm 2 mps 750 mmHg 49%
    13:00 +31°C° 0 mm 3 mps 749 mmHg 48%
    14:00 +30°C° 0 mm 3 mps 749 mmHg 49%
    15:00 +29°C° 0 mm 3 mps 749 mmHg 51%
    16:00 +29°C° 0 mm 3 mps 749 mmHg 54%
    17:00 +27°C° 0 mm 2 mps 749 mmHg 62%
    18:00 +25°C° 0 mm 2 mps 750 mmHg 71%
    19:00 +23°C° 0 mm 1 mps 750 mmHg 79%
    20:00 +22°C° 0 mm 1 mps 750 mmHg 82%
    21:00 +21°C° 0 mm 2 mps 750 mmHg 84%
    22:00 +20°C° 0 mm 2 mps 751 mmHg 86%
    23:00 +20°C° 0 mm 2 mps 750 mmHg 87%

    Tomorrow, 15 October, Tuesday

    Time Temperature Precipitation Wind Pressure Humidity
    00:00 +20°C° 0 mm 2 mps 750 mmHg 88%
    01:00 +20°C° 0 mm 2 mps 750 mmHg 89%
    02:00 +19°C° 0 mm 2 mps 750 mmHg 90%
    03:00 +19°C° 0 mm 2 mps 750 mmHg 91%
    04:00 +19°C° 0 mm 2 mps 749 mmHg 91%
    05:00 +19°C° 0 mm 2 mps 750 mmHg 87%
    06:00 +20°C° 0 mm 2 mps 750 mmHg 83%
    07:00 +21°C° 0 mm 2 mps 750 mmHg 79%
    08:00 +25°C° 0 mm 2 mps 750 mmHg 65%
    09:00 +28°C° 0 mm 2 mps 750 mmHg 51%
    10:00 +31°C° 0 mm 2 mps 750 mmHg 37%
    11:00 +33°C° 0 mm 3 mps 749 mmHg 38%
    12:00 +33°C° 0 mm 3 mps 749 mmHg 39%
    13:00 +33°C° 0 mm 4 mps 748 mmHg 40%
    14:00 +32°C° 0 mm 4 mps 747 mmHg 43%
    15:00 +32°C° 0 mm 4 mps 747 mmHg 46%
    16:00 +30°C° 0 mm 4 mps 747 mmHg 49%
    17:00 +28°C° 0 mm 3 mps 747 mmHg 59%
    18:00 +25°C° 0 mm 3 mps 747 mmHg 69%
    19:00 +22°C° 0 mm 3 mps 747 mmHg 79%
    20:00 +22°C° 0 mm 3 mps 748 mmHg 82%
    21:00 +21°C° 0 mm 3 mps 748 mmHg 85%
    22:00 +21°C° 0 mm 3 mps 749 mmHg 87%
    23:00 +20°C° 0 mm 3 mps 749 mmHg 88%

    Day after tomorrow, 16 October, Wednesday

    Time Temperature Precipitation Wind Pressure Humidity
    00:00 +20°C° 0 mm 2 mps 748 mmHg 90%
    01:00 +19°C° 0 mm 2 mps 748 mmHg 91%
    02:00 +19°C° 0 mm 2 mps 748 mmHg 91%
    03:00 +19°C° 0 mm 2 mps 748 mmHg 91%
    04:00 +19°C° 0 mm 1 mps 748 mmHg 92%
    05:00 +19°C° 0 mm 2 mps 748 mmHg 86%
    06:00 +20°C° 0 mm 2 mps 749 mmHg 80%
    07:00 +21°C° 0 mm 2 mps 750 mmHg 74%
    08:00 +26°C° 0 mm 2 mps 750 mmHg 61%
    09:00 +29°C° 0 mm 2 mps 750 mmHg 48%
    10:00 +32°C° 0 mm 2 mps 750 mmHg 34%
    11:00 +33°C° 0 mm 3 mps 749 mmHg 37%
    12:00 +33°C° 0 mm 4 mps 748 mmHg 40%
    13:00 +33°C° 0 mm 4 mps 748 mmHg 43%
    14:00 +32°C° 0 mm 4 mps 747 mmHg 48%
    15:00 +30°C° 0 mm 4 mps 747 mmHg 52%
    16:00 +29°C° 0 mm 4 mps 747 mmHg 57%
    17:00 +28°C° 0 mm 4 mps 747 mmHg 66%
    18:00 +26°C° 0 mm 4 mps 748 mmHg 75%
    19:00 +24°C° 0 mm 3 mps 748 mmHg 84%
    20:00 +22°C° 0 mm 3 mps 749 mmHg 87%
    21:00 +22°C° 0 mm 3 mps 749 mmHg 90%
    22:00 +23°C° 0 mm 2 mps 750 mmHg 93%
    23:00 +21°C° 0 mm 2 mps 749 mmHg 94%

    17 October, Thursday

    Time Temperature Precipitation Wind Pressure Humidity
    00:00 +21°C° 0 mm 2 mps 749 mmHg 94%
    01:00 +21°C° 0 mm 2 mps 749 mmHg 94%
    02:00 +21°C° 0 mm 2 mps 749 mmHg 94%
    03:00 +21°C° 0 mm 2 mps 749 mmHg 94%
    04:00 +21°C° 0 mm 2 mps 749 mmHg 94%
    05:00 +21°C° 0 mm 2 mps 749 mmHg 90%
    06:00 +23°C° 0 mm 2 mps 750 mmHg 87%
    07:00 +24°C° 0 mm 2 mps 750 mmHg 83%
    08:00 +26°C° 0 mm 2 mps 750 mmHg 73%
    09:00 +28°C° 0 mm 2 mps 750 mmHg 63%
    10:00 +30°C° 0 mm 2 mps 750 mmHg 52%
    11:00 +31°C° 0 mm 3 mps 750 mmHg 52%
    12:00 +31°C° 0 mm 3 mps 749 mmHg 52%
    13:00 +33°C° 0 mm 4 mps 749 mmHg 51%
    14:00 +32°C° 0 mm 4 mps 748 mmHg 55%
    15:00 +30°C° 0 mm 4 mps 748 mmHg 58%
    16:00 +29°C° 0 mm 4 mps 748 mmHg 62%
    17:00 +28°C° 0 mm 4 mps 748 mmHg 69%
    18:00 +26°C° 0 mm 4 mps 749 mmHg 76%
    19:00 +24°C° 0 mm 3 mps 749 mmHg 83%
    20:00 +24°C° 0 mm 3 mps 749 mmHg 86%
    21:00 +22°C° 0 mm 3 mps 750 mmHg 89%
    22:00 +23°C° 0 mm 2 mps 750 mmHg 92%
    23:00 +23°C° 0 mm 2 mps 750 mmHg 92%

    18 October, Friday

    Time Temperature Precipitation Wind Pressure Humidity
    00:00 +23°C° 0 mm 2 mps 749 mmHg 93%
    01:00 +21°C° 0 mm 2 mps 749 mmHg 93%
    02:00 +21°C° 0 mm 2 mps 749 mmHg 94%
    03:00 +21°C° 0 mm 2 mps 749 mmHg 94%
    04:00 +22°C° 0 mm 1 mps 750 mmHg 94%
    05:00 +23°C° 0 mm 1 mps 750 mmHg 90%
    06:00 +24°C° 0 mm 1 mps 751 mmHg 87%
    07:00 +25°C° 0 mm 1 mps 752 mmHg 83%
    08:00 +26°C° 0 mm 1 mps 752 mmHg 74%
    09:00 +28°C° 0 mm 1 mps 752 mmHg 65%
    10:00 +30°C° 0 mm 2 mps 752 mmHg 56%
    11:00 +30°C° 0 mm 2 mps 751 mmHg 54%
    12:00 +31°C° 0 mm 3 mps 750 mmHg 52%
    13:00 +33°C° 0 mm 3 mps 750 mmHg 50%
    14:00 +31°C° 0 mm 3 mps 749 mmHg 53%
    15:00 +30°C° 0 mm 3 mps 749 mmHg 55%
    16:00 +29°C° 0 mm 3 mps 749 mmHg 58%
    17:00 +28°C° 0 mm 3 mps 749 mmHg 66%
    18:00 +26°C° 0 mm 2 mps 750 mmHg 74%
    19:00 +24°C° 0 mm 2 mps 750 mmHg 82%
    20:00 +24°C° 0 mm 2 mps 751 mmHg 85%
    21:00 +23°C° 0 mm 1 mps 751 mmHg 87%
    22:00 +23°C° 0 mm 1 mps 751 mmHg 90%
    23:00 +23°C° 0 mm 1 mps 751 mmHg 90%

    19 October, Saturday

    Time Temperature Precipitation Wind Pressure Humidity
    00:00 +22°C° 0 mm 1 mps 750 mmHg 91%
    01:00 +22°C° 0 mm 1 mps 750 mmHg 92%
    02:00 +22°C° 0 mm 1 mps 750 mmHg 92%
    03:00 +22°C° 0 mm 1 mps 750 mmHg 93%
    04:00 +22°C° 0 mm 1 mps 750 mmHg 93%
    05:00 +23°C° 0 mm 1 mps 750 mmHg 89%
    06:00 +23°C° 0 mm 1 mps 751 mmHg 85%
    07:00 +24°C° 0 mm 1 mps 751 mmHg 82%
    08:00 +26°C° 0 mm 1 mps 751 mmHg 71%
    09:00 +29°C° 0 mm 1 mps 752 mmHg 60%
    10:00 +31°C° 0 mm 2 mps 752 mmHg 49%
    11:00 +31°C° 0 mm 2 mps 751 mmHg 50%
    12:00 +31°C° 0 mm 3 mps 750 mmHg 51%
    13:00 +31°C° 0 mm 3 mps 750 mmHg 52%
    14:00 +30°C° 0 mm 3 mps 749 mmHg 54%
    15:00 +30°C° 0 mm 3 mps 749 mmHg 57%
    16:00 +29°C° 0 mm 3 mps 748 mmHg 59%
    17:00 +27°C° 0 mm 3 mps 749 mmHg 66%
    18:00 +26°C° 0 mm 3 mps 749 mmHg 73%
    19:00 +24°C° 0 mm 2 mps 750 mmHg 80%
    20:00 +24°C° 0 mm 2 mps 750 mmHg 82%
    21:00 +24°C° 0 mm 2 mps 750 mmHg 84%
    22:00 +23°C° 0 mm 2 mps 751 mmHg 86%
    23:00 +23°C° 0 mm 2 mps 751 mmHg 86%
    Show more